306  
ASUS41 KAKQ 071315  
RWRAKQ  
 
REGIONAL WEATHER ROUNDUP  
NATIONAL WEATHER SERVICE WAKEFIELD VA  
900 AM EDT THU JUL 07 2022  
 
NOTE: "FAIR" INDICATES FEW OR NO CLOUDS BELOW 12,000 FEET WITH NO  
SIGNIFICANT WEATHER AND/OR S TO VISIBILITY
. * = DENOTES  
STATION MAY NOT REPORT PRECIPITATION (E.G., RAIN,SNOW,ETC.),
 
THUNDER OR FOG.  
 
VAZ042-051-052>054-056-071400-  
NORTHERN VIRGINIA  
 
CITY SKY/WX TMP DP RH WIND PRES REMARKS
 
WASH NATIONAL CLOUDY 74 68 81 N9 29.96R  
DULLES CLOUDY 73 69 87 NE8 29.97R  
FORT BELVOIR CLOUDY 74 70 87 CALM 29.94R  
QUANTICO NOT AVBL  
FREDERICKSBRG* CLOUDY 77 73 88 N8 29.92S  
STAFFORD* NOT AVBL  
WARRENTON CLOUDY 76 70 82 N7 29.97R  
CULPEPER* CLOUDY 76 72 88 N7 29.97S  
MANASSAS* CLOUDY 73 69 87 N9 29.97R  
LEESBURG* CLOUDY 72 70 94 NE8 30.00S  
WINCHESTER CLOUDY 68 64 88 NE5 29.99R  
FRONT ROYAL* CLOUDY 72 68 88 N5 29.99R  
LURAY* CLOUDY 72 70 94 NE3 29.99S  

 
 
VAZ048-049-060>072-079>083-071400-  
CENTRAL AND SOUTH CENTRAL VIRGINIA  
 
CITY SKY/WX TMP DP RH WIND PRES REMARKS
 
RICHMOND PTSUNNY 79 73 82 N7 29.93S  
CHESTERFIELD* PTSUNNY 77 76 96 NW9 29.94R  
PETERSBURG* MOSUNNY 77 73 86 NW5 29.94R  
HANOVER PTSUNNY 79 74 84 N5 29.94S  
TAPPAHANNOCK* NOT AVBL  
QUINTON* PTSUNNY 77 74 88 NW3 29.92R  
CHARLOTTSVILLE CLOUDY 80 72 76 NE7 29.97R  
GORDONSVILLE* CLOUDY 77 72 83 NE7 29.96R  
ORANGE* CLOUDY 77 72 83 NW7 29.97S  
LOUISA* CLOUDY 76 73 90 N9 29.96S  
BUMPASS* CLOUDY 76 73 90 N3 29.95R  
FARMVILLE* MOSUNNY 78 73 84 N3 29.95S  
CREWE* FAIR 76 73 91 NW3 29.95S  
FORT PICKETT* FAIR 79 73 81 NW7 29.95S  
CHASE CITY* FAIR 78 74 88 W3 29.96S  
CLARKSVILLE* FAIR 77 77 100 SW5 29.96R  
SOUTH HILL* PTSUNNY 78 74 85 W3 30.01R  
LAWRENCEVILLE* FAIR 79 73 82 NW3 29.95S  
EMPORIA* MOSUNNY 77 74 90 S3 29.95R  

 
 
VAZ088>098-071400-  
SOUTHEAST VIRGINIA  
 
CITY SKY/WX TMP DP RH WIND PRES REMARKS
 
NORFOLK MOSUNNY 83 71 67 SW10 29.92R  
VIRGINIA BEACH PTSUNNY 82 72 71 SW9 29.92R  
NORFOLK NAVAL PTSUNNY 83 71 67 SW8 29.94R  
WEST POINT* CLOUDY 77 72 85 NW3 29.93S  
SALUDA* PTSUNNY 78 73 83 NW7 29.92R  
NEWPORT NEWS MOSUNNY 78 72 81 W7 29.93R  
LANGLEY AFB MOSUNNY 79 77 94 W10 29.92R  
FORT EUSTIS PTSUNNY 78 72 81 W6 29.91R  
WILLIAMSBURG* MOSUNNY 81 73 78 W5 29.94R  
HR EXEC AP* FAIR 79 74 84 W6 29.94R  
FRANKLIN* MOSUNNY 76 75 97 S5 29.94S  
US460-WAKEFLD MOSUNNY 77 73 87 SW3 29.93R  

 
 
VAZ020-022-025-037-045-071400-  
WEST CENTRAL AND SOUTHWEST VIRGINIA  
 
CITY SKY/WX TMP DP RH WIND PRES REMARKS
 
STAUNTON* CLOUDY 72 70 95 CALM 30.03R  
WAYNESBORO* CLOUDY 74 70 85 MISG 30.02R  
HOT SPRINGS VA PTSUNNY 69 69 100 W10 30.13S  
LYNCHBURG MOSUNNY 82 72 71 CALM 29.98S  
DANVILLE MOSUNNY 82 71 69 CALM 29.97R  
BROOKNEAL* NOT AVBL  
SOUTH BOSTON* FAIR 79 73 83 W3 29.96S  
MARTINSVILLE MOSUNNY 79 72 80 CALM 30.01S  
ROANOKE PTSUNNY 78 70 76 NW5 30.02S  
BLACKSBURG MOSUNNY 76 73 92 W3 30.09S  
DUBLIN* MOSUNNY 76 70 80 SW6 30.08S  
MARION* CLOUDY 69 69 99 W12G18 30.13S FOG  
HILLSVILLE* MOSUNNY 74 73 96 W7 30.10R  
RICHLANDS* CLOUDY 69 68 99 CALM 30.12S FOG  
WISE* PTSUNNY 72 70 94 SW8 30.14R  
ABINGDON* NOT AVBL  

 
 
MDZ021>025-VAZ099-100-071400-  
SOUTHERN MARYLAND AND THE DELMARVA PENINSULA  
 
CITY SKY/WX TMP DP RH WIND PRES REMARKS
 
PATUXENT RIVER PTSUNNY 82 75 79 N7 29.91R  
BAY BRIDGE APT NOT AVBL  
LEONARDTOWN CLOUDY 77 75 94 N3 29.94R  
DOVER CLOUDY 72 72 100 N10 29.94R  
GEORGETOWN CLOUDY 76 74 93 NE9 29.93R  
EASTON CLOUDY 75 73 94 N9 29.97R  
CAMBRIDGE NOT AVBL  
SALISBURY CLOUDY 77 74 90 E3 29.91R  
TANGIER CLOUDY 80 75 85 W7 29.91R  
OCEAN CITY CLOUDY 76 75 97 NE3 29.92R  
WALLOPS ISLAND PTSUNNY 81 75 82 W8 29.91R  
ACCOMACK* PTSUNNY 79 70 72 W5 29.92  

 
 
NCZ012>017-030>032-071400-  
NORTH CENTRAL AND EASTERN NORTH CAROLINA  
 
CITY SKY/WX TMP DP RH WIND PRES REMARKS
 
ROANOKE RAPIDS FAIR 77 77 100 SW8 29.95S  
RALEIGH PTSUNNY 82 73 74 W7 29.97R  
ELIZABETH CITY MOSUNNY 82 74 76 SW10 29.95S  
AHOSKIE* MOSUNNY 77 77 100 W3 29.94F  
EDENTON* MOSUNNY 81 78 91 SW5 29.96S  
CURRITUCK* CLOUDY 80 72 76 SW9 29.94F  
KILL DEVIL HLS CLOUDY 81 72 73 SW6 29.95S  
MANTEO CLOUDY 81 73 78 SW9 29.97S  
CAPE HATTERAS CLOUDY 83 76 79 SW8 29.97S  
TARBORO* FAIR 79 75 86 SW3 29.95S  
GOLDSBORO MOSUNNY 82 69 65 S12 29.95R  
WASHINGTON MOSUNNY 81 73 76 SW8 29.97R  
GREENVILLE MOSUNNY 81 77 89 SW6 29.96R  
NEW BERN MOSUNNY 80 75 84 W7 29.98R  
WILMINGTON MOSUNNY 86 73 65 SW10 29.99S  

 
 
VAZ048-071400-  
ELSEWHERE  
 
CITY SKY/WX TMP DP RH WIND PRES REMARKS
 
HARRISBURG PA CLOUDY 72 65 78 SE5 29.99R  
BALTIMORE CLOUDY 73 68 84 NE12 29.96R  
ANNAPOLIS CLOUDY 74 69 85 N8 29.95R  
ANDREWS AFB CLOUDY 73 68 83 NE9 29.93R  
PHILADELPHIA CLOUDY 72 69 90 NE8 29.98S  
HENDERSON NC MOSUNNY 75 74 97 W5 29.97S  
GREENSBORO PTSUNNY 80 72 76 NW3 29.98S  
ROCKY MOUNT MOSUNNY 80 73 79 SW7 29.96R  

 
 
VAZ100-071400-  
MARINE  
 
STATION/POSITION TIME TEMP WIND PRES WAVE SWELL
 
AIR SEA DIR/SP/G HT/PER HT/PER  
(UTC) (F) (DEG/KT/KT) (MB) (FT/S) (FT/S)  
CAPE MAY NJ 1230 71 69 50/ 6/ 12 1013.3S  
LEWES DE 1230 71 70 70/ 11/ 13 1013.2S  
15NM E FENWICK I 1250 72 360/ 4/ 4 1013.1R 2/ 8 2/ 8  
OCEAN-CITY-INLET 1230 74 65 30/ 5/ 6 1013.2R  
44089 WALLOPS IS 1256 67 N/A 2/ 8  
WACHAPREAGUE VA 1230 82 82 260/ 6/ 9 1012.1R  
THOMAS POINT MD 1300 72 78 10/ 14/ 15 1014.7R  
GOOSES REEF MD 1242 73 79 10/ 16/ 19 1014.6R 1/ 3  
COVE POINT MD 1230 77 330/ 13/ 14 1012.9R  
SOLOMONS ISLAND 1230 77 81 350/ 11/ 14 1011.1R  
BISHOPS HEAD MD 1230 78 81 290/ 5/ 6 1012.9R  
PINEY POINT MD 1230 330/ 10/ 11 N/A  
POTOMAC MD 1242 75 80 270/ 6/ 8 N/A  
CAMBRIDGE MD 1230 76 82 10/ 7/ 11 1012.8R  
LEWISETTA VA 1230 76 82 270/ 6/ 7 1012.7R  
RAPPAHANNOCK LGT 1230 250/ 9/ 10 1013.2R  
STINGRAY PT 1242 77 81 300/ 8/ 12 N/A  
YORK RVR RNG VA 1230 79 250/ 6/ 7 1012.9R  
YORKTOWN VA 1230 78 80 240/ 6/ 7 1012.6R  
JAMESTOWN VA 1242 76 280/ 10/ 14 N/A  
DOMINION TERM VA 1230 78 250/ 10/ 11 1013.6R  
KIPTOPEKE VA 1230 80 260/ 8/ 10 N/A  
CHES BAY BRIDGE 1230 79 250/ 14/ 16 1012.1F  
CAPE HENRY VA 1230 81 220/ 8/ 12 1013.6R  
WILLOUBY STN VA 1230 78 250/ 13/ 15 1013.0R  
S CRANEY ISL VA 1230 80 230/ 7/ 10 1013.2R  
CAPE HENRY BUOY 1256 76 N/A 2/ 8  
1ST LANDING BUOY 1242 78 230/ 8/ 12 1014.5R  
64NM E OF VA BCH 1250 210/ 8/ 10 1013.1R 4/ 6 3/ 6  
DUCK PIER NC 1230 80 60 230/ 8/ 10 1014.2R  
44056 DUCK FRF 1226 70 N/A 2/ 9  
OREGON INLET NC 1230 81 87 230/ 11/ 12 1014.7R  
HATTERAS NC 1230 81 83 220/ 8/ 11 1015.4R  
DIAMOND SHLS NC 1250 81 220/ 14/ 17 1014.8F  
CAPE LOOKOUT NC 1200 81 230/ 9/ 13 1014.8R  

 
 
 
CLICK HERE TO GO TO PREVIOUS BULLETINS.

The Nexlab VA Page
The Nexlab NC Page
The Nexlab MD Page Main Text Page